Simultaneous Nadir Overpasses (SNOs) Predictions

Prediction of SNOs between AQUA and NPP Satellite Orbit:

Table of predicted SNOs for the next 14.0 days since TLE Epoch: 2/12/2022
Index Date (AQUA) Time (AQUA) Lat,Lon (AQUA) SZA (AQUA ) Date (NPP) Time (NPP) Lat,Lon (NPP) SZA (NPP ) Distance(km) Time Diff (sec)
1 02/12/2022 21:48:57 -76.31, -86.83 69.35 02/12/2022 21:47:48 -76.32, -86.80 69.30 1.01 69
2 02/12/2022 22:38:03 77.24, 84.13 109.55 02/12/2022 22:38:11 77.25, 84.19 109.53 1.61 8
3 02/15/2022 14:05:13 -76.72, 30.45 70.72 02/15/2022 14:04:35 -76.72, 30.48 70.70 0.71 38
4 02/15/2022 14:54:20 77.58,-158.58 108.23 02/15/2022 14:54:59 77.59,-158.51 108.19 1.55 39
5 02/18/2022 06:21:26 -77.19, 148.10 72.21 02/18/2022 06:21:19 -77.20, 148.20 72.23 2.65 7
6 02/18/2022 07:10:41 77.68, -42.28 107.19 02/18/2022 07:11:52 77.67, -42.37 107.15 2.34 71
7 02/20/2022 21:48:37 76.50, 93.87 107.68 02/20/2022 21:47:45 76.49, 93.83 107.73 0.97 52
8 02/20/2022 22:37:44 -77.45, -94.96 73.47 02/20/2022 22:38:09 -77.45, -94.93 73.50 0.89 25
9 02/23/2022 14:04:52 76.88,-148.86 106.25 02/23/2022 14:04:32 76.88,-148.89 106.28 0.87 20



Historial Predications of SNOs between AQUA and NPP
